Year,Month,Day,Hour,Minute,Value (Times are PST for windspeed in km/hr)
2010,11,16,00,00,18.00
2010,11,16,00,01,15.90
2010,11,16,00,02,15.60
2010,11,16,00,03,18.70
2010,11,16,00,04,17.30
2010,11,16,00,05,12.70
2010,11,16,00,06,21.80
2010,11,16,00,07,24.40
2010,11,16,00,08,20.40
2010,11,16,00,09,13.40
2010,11,16,00,10,14.60
2010,11,16,00,11,13.60
2010,11,16,00,12,15.90
2010,11,16,00,13,15.70
2010,11,16,00,14,18.30
2010,11,16,00,15,18.80
2010,11,16,00,16,19.90
2010,11,16,00,17,19.70
2010,11,16,00,18,17.80
2010,11,16,00,19,18.20
2010,11,16,00,20,19.50
2010,11,16,00,21,18.80
2010,11,16,00,22,24.30
2010,11,16,00,23,20.70
2010,11,16,00,24,22.50
2010,11,16,00,25,23.00
2010,11,16,00,26,15.80
2010,11,16,00,27,16.20
2010,11,16,00,28,12.10
2010,11,16,00,29,18.20
2010,11,16,00,30,23.30
2010,11,16,00,31,28.10
2010,11,16,00,32,16.40
2010,11,16,00,33,20.80
2010,11,16,00,34,16.50
2010,11,16,00,35,10.40
2010,11,16,00,36,15.00
2010,11,16,00,37,19.00
2010,11,16,00,38,14.90
2010,11,16,00,39,12.00
2010,11,16,00,40,10.10
2010,11,16,00,41,17.10
2010,11,16,00,42,14.30
2010,11,16,00,43,11.20
2010,11,16,00,44,16.70
2010,11,16,00,45,16.30
2010,11,16,00,46,13.60
2010,11,16,00,47,20.90
2010,11,16,00,48,13.30
2010,11,16,00,49,10.60
2010,11,16,00,50,14.90
2010,11,16,00,51,17.30
2010,11,16,00,52,11.30
2010,11,16,00,53,12.00
2010,11,16,00,54,14.00
2010,11,16,00,55,13.40
2010,11,16,00,56,10.90
2010,11,16,00,57,9.20
2010,11,16,00,58,14.90
2010,11,16,00,59,12.60
2010,11,16,01,00,11.30
2010,11,16,01,01,5.00
2010,11,16,01,02,5.30
2010,11,16,01,03,11.00
2010,11,16,01,04,12.30
2010,11,16,01,05,13.80
2010,11,16,01,06,15.40
2010,11,16,01,07,11.90
2010,11,16,01,08,11.90
2010,11,16,01,09,12.00
2010,11,16,01,10,18.20
2010,11,16,01,11,14.80
2010,11,16,01,12,18.40
2010,11,16,01,13,13.00
2010,11,16,01,14,16.40
2010,11,16,01,15,14.60
2010,11,16,01,16,14.90
2010,11,16,01,17,11.00
2010,11,16,01,18,11.00
2010,11,16,01,19,17.40
2010,11,16,01,20,24.20
2010,11,16,01,21,18.80
2010,11,16,01,22,14.10
2010,11,16,01,23,14.90
2010,11,16,01,24,15.00
2010,11,16,01,25,11.40
2010,11,16,01,26,12.20
2010,11,16,01,27,12.10
2010,11,16,01,28,11.90
2010,11,16,01,29,16.20
2010,11,16,01,30,12.00
2010,11,16,01,31,17.90
2010,11,16,01,32,12.90
2010,11,16,01,33,16.00
2010,11,16,01,34,19.10
2010,11,16,01,35,18.40
2010,11,16,01,36,22.40
2010,11,16,01,37,22.60
2010,11,16,01,38,16.50
2010,11,16,01,39,23.40
2010,11,16,01,40,24.40
2010,11,16,01,41,18.30
2010,11,16,01,42,17.30
2010,11,16,01,43,23.90
2010,11,16,01,44,19.30
2010,11,16,01,45,28.70
2010,11,16,01,46,19.30
2010,11,16,01,47,26.30
2010,11,16,01,48,21.30
2010,11,16,01,49,22.30
2010,11,16,01,50,15.20
2010,11,16,01,51,18.30
2010,11,16,01,52,17.40
2010,11,16,01,53,19.00
2010,11,16,01,54,22.50
2010,11,16,01,55,18.10
2010,11,16,01,56,18.00
2010,11,16,01,57,20.10
2010,11,16,01,58,19.90
2010,11,16,01,59,12.50
2010,11,16,02,00,21.80
2010,11,16,02,01,15.40
2010,11,16,02,02,20.40
2010,11,16,02,03,17.60
2010,11,16,02,04,18.80
2010,11,16,02,05,19.90
2010,11,16,02,06,18.70
2010,11,16,02,07,14.30
2010,11,16,02,08,18.00
2010,11,16,02,09,11.70
2010,11,16,02,10,14.80
2010,11,16,02,11,20.90
2010,11,16,02,12,9.10
2010,11,16,02,13,8.00
2010,11,16,02,14,13.30
2010,11,16,02,15,23.50
2010,11,16,02,16,16.10
2010,11,16,02,17,11.60
2010,11,16,02,18,7.50
2010,11,16,02,19,13.10
2010,11,16,02,20,12.50
2010,11,16,02,21,9.40
2010,11,16,02,22,10.90
2010,11,16,02,23,12.10
2010,11,16,02,24,10.40
2010,11,16,02,25,17.60
2010,11,16,02,26,12.30
2010,11,16,02,27,11.30
2010,11,16,02,28,9.50
2010,11,16,02,29,7.90
2010,11,16,02,30,3.50
2010,11,16,02,31,4.40
2010,11,16,02,32,5.30
2010,11,16,02,33,12.60
2010,11,16,02,34,8.40
2010,11,16,02,35,11.10
2010,11,16,02,36,13.30
2010,11,16,02,37,14.30
2010,11,16,02,38,9.00
2010,11,16,02,39,2.30
2010,11,16,02,40,3.20
2010,11,16,02,41,17.80
2010,11,16,02,42,13.60
2010,11,16,02,43,13.20
2010,11,16,02,44,14.90
2010,11,16,02,45,10.60
2010,11,16,02,46,7.70
2010,11,16,02,47,11.80
2010,11,16,02,48,12.80
2010,11,16,02,49,11.10
2010,11,16,02,50,17.00
2010,11,16,02,51,17.80
2010,11,16,02,52,16.20
2010,11,16,02,53,14.10
2010,11,16,02,54,19.20
2010,11,16,02,55,22.50
2010,11,16,02,56,15.60
2010,11,16,02,57,13.20
2010,11,16,02,58,13.90
2010,11,16,02,59,8.50
2010,11,16,03,00,14.60
2010,11,16,03,01,13.80
2010,11,16,03,02,11.00
2010,11,16,03,03,11.80
2010,11,16,03,04,13.10
2010,11,16,03,05,10.30
2010,11,16,03,06,7.30
2010,11,16,03,07,14.20
2010,11,16,03,08,10.10
2010,11,16,03,09,7.50
2010,11,16,03,10,14.60
2010,11,16,03,11,14.00
2010,11,16,03,12,8.70
2010,11,16,03,13,12.70
2010,11,16,03,14,18.00
2010,11,16,03,15,18.30
2010,11,16,03,16,16.30
2010,11,16,03,17,15.90
2010,11,16,03,18,11.00
2010,11,16,03,19,12.00
2010,11,16,03,20,14.60
2010,11,16,03,21,10.30
2010,11,16,03,22,13.90
2010,11,16,03,23,14.20
2010,11,16,03,24,15.70
2010,11,16,03,25,19.40
2010,11,16,03,26,16.00
2010,11,16,03,27,14.40
2010,11,16,03,28,15.00
2010,11,16,03,29,8.90
2010,11,16,03,30,4.30
2010,11,16,03,31,13.90
2010,11,16,03,32,13.20
2010,11,16,03,33,13.10
2010,11,16,03,34,16.10
2010,11,16,03,35,11.80
2010,11,16,03,36,7.70
2010,11,16,03,37,10.90
2010,11,16,03,38,10.70
2010,11,16,03,39,12.40
2010,11,16,03,40,9.30
2010,11,16,03,41,9.10
2010,11,16,03,42,12.90
2010,11,16,03,43,16.70
2010,11,16,03,44,13.10
2010,11,16,03,45,13.90
2010,11,16,03,46,13.30
2010,11,16,03,47,12.80
2010,11,16,03,48,10.70
2010,11,16,03,49,14.20
2010,11,16,03,50,12.60
2010,11,16,03,51,8.00
2010,11,16,03,52,5.90
2010,11,16,03,53,15.30
2010,11,16,03,54,14.80
2010,11,16,03,55,23.20
2010,11,16,03,56,14.10
2010,11,16,03,57,19.80
2010,11,16,03,58,18.10
2010,11,16,03,59,23.00
2010,11,16,04,00,12.50
2010,11,16,04,01,9.90
2010,11,16,04,02,13.00
2010,11,16,04,03,15.50
2010,11,16,04,04,13.00
2010,11,16,04,05,11.20
2010,11,16,04,06,13.90
2010,11,16,04,07,18.70
2010,11,16,04,08,16.60
2010,11,16,04,09,14.80
2010,11,16,04,10,13.50
2010,11,16,04,11,13.20
2010,11,16,04,12,15.30
2010,11,16,04,13,11.60
2010,11,16,04,14,10.30
2010,11,16,04,15,8.90
2010,11,16,04,16,9.30
2010,11,16,04,17,14.20
2010,11,16,04,18,16.90
2010,11,16,04,19,10.60
2010,11,16,04,20,12.30
2010,11,16,04,21,18.70
2010,11,16,04,22,13.30
2010,11,16,04,23,16.00
2010,11,16,04,24,9.70
2010,11,16,04,25,15.20
2010,11,16,04,26,13.80
2010,11,16,04,27,20.80
2010,11,16,04,28,13.40
2010,11,16,04,29,13.10
2010,11,16,04,30,12.60
2010,11,16,04,31,19.60
2010,11,16,04,32,16.60
2010,11,16,04,33,11.00
2010,11,16,04,34,11.30
2010,11,16,04,35,17.50
2010,11,16,04,36,16.00
2010,11,16,04,37,12.50
2010,11,16,04,38,14.60
2010,11,16,04,39,16.10
2010,11,16,04,40,10.70
2010,11,16,04,41,13.80
2010,11,16,04,42,13.20
2010,11,16,04,43,19.40
2010,11,16,04,44,13.30
2010,11,16,04,45,9.00
2010,11,16,04,46,17.40
2010,11,16,04,47,18.90
2010,11,16,04,48,21.50
2010,11,16,04,49,16.20
2010,11,16,04,50,20.70
2010,11,16,04,51,18.20
2010,11,16,04,52,12.90
2010,11,16,04,53,27.20
2010,11,16,04,54,19.70
2010,11,16,04,55,18.80
2010,11,16,04,56,17.60
2010,11,16,04,57,18.70
2010,11,16,04,58,22.70
2010,11,16,04,59,15.20
2010,11,16,05,00,18.20
2010,11,16,05,01,17.40
2010,11,16,05,02,25.50
2010,11,16,05,03,16.20
2010,11,16,05,04,13.80
2010,11,16,05,05,13.20
2010,11,16,05,06,18.80
2010,11,16,05,07,17.60
2010,11,16,05,08,25.10
2010,11,16,05,09,25.00
2010,11,16,05,10,18.60
2010,11,16,05,11,12.90
2010,11,16,05,12,9.30
2010,11,16,05,13,9.50
2010,11,16,05,14,17.70
2010,11,16,05,15,16.20
2010,11,16,05,16,19.90
2010,11,16,05,17,14.80
2010,11,16,05,18,12.40
2010,11,16,05,19,18.90
2010,11,16,05,20,23.60
2010,11,16,05,21,20.50
2010,11,16,05,22,18.10
2010,11,16,05,23,22.60
2010,11,16,05,24,12.70
2010,11,16,05,25,22.40
2010,11,16,05,26,20.60
2010,11,16,05,27,15.00
2010,11,16,05,28,14.00
2010,11,16,05,29,13.10
2010,11,16,05,30,14.80
2010,11,16,05,31,19.90
2010,11,16,05,32,21.30
2010,11,16,05,33,13.50
2010,11,16,05,34,13.50
2010,11,16,05,35,14.10
2010,11,16,05,36,19.40
2010,11,16,05,37,13.20
2010,11,16,05,38,12.70
2010,11,16,05,39,16.90
2010,11,16,05,40,20.50
2010,11,16,05,41,19.00
2010,11,16,05,42,18.10
2010,11,16,05,43,14.70
2010,11,16,05,44,16.60
2010,11,16,05,45,13.80
2010,11,16,05,46,15.90
2010,11,16,05,47,21.80
2010,11,16,05,48,17.50
2010,11,16,05,49,16.90
2010,11,16,05,50,10.80
2010,11,16,05,51,21.40
2010,11,16,05,52,17.80
2010,11,16,05,53,15.00
2010,11,16,05,54,16.30
2010,11,16,05,55,18.50
2010,11,16,05,56,16.80
2010,11,16,05,57,16.00
2010,11,16,05,58,17.90
2010,11,16,05,59,20.40
2010,11,16,06,00,17.00
2010,11,16,06,01,18.50
2010,11,16,06,02,16.20
2010,11,16,06,03,13.30
2010,11,16,06,04,19.10
2010,11,16,06,05,22.30
2010,11,16,06,06,21.60
2010,11,16,06,07,21.00
2010,11,16,06,08,16.90
2010,11,16,06,09,19.80
2010,11,16,06,10,24.30
2010,11,16,06,11,18.50
2010,11,16,06,12,19.80
2010,11,16,06,13,18.50
2010,11,16,06,14,23.80
2010,11,16,06,15,21.30
2010,11,16,06,16,22.00
2010,11,16,06,17,22.00
2010,11,16,06,18,20.40
2010,11,16,06,19,24.10
2010,11,16,06,20,21.80
2010,11,16,06,21,25.00
2010,11,16,06,22,22.60
2010,11,16,06,23,25.80
2010,11,16,06,24,23.10
2010,11,16,06,25,19.60
2010,11,16,06,26,25.30
2010,11,16,06,27,23.60
2010,11,16,06,28,21.70
2010,11,16,06,29,21.30
2010,11,16,06,30,26.30
2010,11,16,06,31,22.90
2010,11,16,06,32,21.30
2010,11,16,06,33,20.80
2010,11,16,06,34,20.00
2010,11,16,06,35,21.90
2010,11,16,06,36,26.20
2010,11,16,06,37,29.80
2010,11,16,06,38,21.10
2010,11,16,06,39,19.40
2010,11,16,06,40,20.80
2010,11,16,06,41,14.30
2010,11,16,06,42,13.70
2010,11,16,06,43,15.30
2010,11,16,06,44,14.30
2010,11,16,06,45,17.30
2010,11,16,06,46,24.30
2010,11,16,06,47,19.70
2010,11,16,06,48,15.80
2010,11,16,06,49,10.10
2010,11,16,06,50,13.70
2010,11,16,06,51,15.30
2010,11,16,06,52,14.70
2010,11,16,06,53,15.10
2010,11,16,06,54,18.20
2010,11,16,06,55,19.00
2010,11,16,06,56,17.50
2010,11,16,06,57,25.80
2010,11,16,06,58,20.70
2010,11,16,06,59,20.50
2010,11,16,07,00,22.20
2010,11,16,07,01,14.00
2010,11,16,07,02,10.40
2010,11,16,07,03,12.00
2010,11,16,07,04,6.70
2010,11,16,07,05,8.30
2010,11,16,07,06,15.20
2010,11,16,07,07,21.60
2010,11,16,07,08,14.90
2010,11,16,07,09,15.20
2010,11,16,07,10,11.80
2010,11,16,07,11,12.60
2010,11,16,07,12,8.10
2010,11,16,07,13,13.50
2010,11,16,07,14,11.60
2010,11,16,07,15,7.00
2010,11,16,07,16,7.50
2010,11,16,07,17,6.20
2010,11,16,07,18,9.70
2010,11,16,07,19,8.90
2010,11,16,07,20,11.40
2010,11,16,07,21,7.70
2010,11,16,07,22,7.20
2010,11,16,07,23,10.90
2010,11,16,07,24,15.70
2010,11,16,07,25,8.80
2010,11,16,07,26,12.70
2010,11,16,07,27,6.10
2010,11,16,07,28,11.40
2010,11,16,07,29,14.60
2010,11,16,07,30,14.60
2010,11,16,07,31,11.10
2010,11,16,07,32,20.20
2010,11,16,07,33,14.50
2010,11,16,07,34,14.90
2010,11,16,07,35,14.10
2010,11,16,07,36,11.30
2010,11,16,07,37,12.20
2010,11,16,07,38,9.00
2010,11,16,07,39,17.90
2010,11,16,07,40,20.00
2010,11,16,07,41,14.00
2010,11,16,07,42,11.80
2010,11,16,07,43,5.40
2010,11,16,07,44,9.30
2010,11,16,07,45,11.90
2010,11,16,07,46,13.90
2010,11,16,07,47,8.30
2010,11,16,07,48,14.30
2010,11,16,07,49,10.00
2010,11,16,07,50,5.60
2010,11,16,07,51,7.10
2010,11,16,07,52,11.80
2010,11,16,07,53,17.90
2010,11,16,07,54,16.20
2010,11,16,07,55,16.20
2010,11,16,07,56,13.60
2010,11,16,07,57,11.90
2010,11,16,07,58,12.70
2010,11,16,07,59,11.60
2010,11,16,08,00,4.60
2010,11,16,08,01,8.00
2010,11,16,08,02,11.30
2010,11,16,08,03,8.50
2010,11,16,08,04,8.80
2010,11,16,08,05,15.70
2010,11,16,08,06,8.70
2010,11,16,08,07,11.10
2010,11,16,08,08,10.10
2010,11,16,08,09,11.30
2010,11,16,08,10,12.20
2010,11,16,08,11,9.70
2010,11,16,08,12,5.50
2010,11,16,08,13,8.10
2010,11,16,08,14,3.70
2010,11,16,08,15,1.70
2010,11,16,08,16,4.20
2010,11,16,08,17,0.80
2010,11,16,08,18,3.50
2010,11,16,08,19,3.80
2010,11,16,08,20,10.80
2010,11,16,08,21,9.40
2010,11,16,08,22,10.50
2010,11,16,08,23,11.40
2010,11,16,08,24,12.90
2010,11,16,08,25,5.50
2010,11,16,08,26,12.50
2010,11,16,08,27,12.00
2010,11,16,08,28,9.70
2010,11,16,08,29,8.50
2010,11,16,08,30,6.50
2010,11,16,08,31,5.90
2010,11,16,08,32,9.50
2010,11,16,08,33,14.60
2010,11,16,08,34,7.20
2010,11,16,08,35,14.70
2010,11,16,08,36,8.20
2010,11,16,08,37,10.50
2010,11,16,08,38,11.30
2010,11,16,08,39,13.70
2010,11,16,08,40,14.60
2010,11,16,08,41,16.80
2010,11,16,08,42,21.30
2010,11,16,08,43,21.10
2010,11,16,08,44,14.90
2010,11,16,08,45,19.30
2010,11,16,08,46,15.50
2010,11,16,08,47,15.80
2010,11,16,08,48,20.40
2010,11,16,08,49,15.80
2010,11,16,08,50,11.10
2010,11,16,08,51,10.10
2010,11,16,08,52,12.00
2010,11,16,08,53,14.00
2010,11,16,08,54,17.20
2010,11,16,08,55,14.40
2010,11,16,08,56,18.30
2010,11,16,08,57,12.50
2010,11,16,08,58,16.80
2010,11,16,08,59,17.80
2010,11,16,09,00,17.40
2010,11,16,09,01,13.20
2010,11,16,09,02,14.20
2010,11,16,09,03,16.30
2010,11,16,09,04,7.10
2010,11,16,09,05,15.80
2010,11,16,09,06,22.20
2010,11,16,09,07,21.70
2010,11,16,09,08,13.40
2010,11,16,09,09,14.10
2010,11,16,09,10,11.80
2010,11,16,09,11,10.90
2010,11,16,09,12,7.40
2010,11,16,09,13,13.50
2010,11,16,09,14,15.20
2010,11,16,09,15,16.20
2010,11,16,09,16,12.00
2010,11,16,09,17,10.60
2010,11,16,09,18,6.60
2010,11,16,09,19,7.90
2010,11,16,09,20,22.50
2010,11,16,09,21,18.80
2010,11,16,09,22,11.80
2010,11,16,09,23,8.70
2010,11,16,09,24,10.20
2010,11,16,09,25,15.50
2010,11,16,09,26,12.00
2010,11,16,09,27,15.40
2010,11,16,09,28,22.20
2010,11,16,09,29,15.80
2010,11,16,09,30,10.70
2010,11,16,09,31,13.40
2010,11,16,09,32,17.40
2010,11,16,09,33,14.60
2010,11,16,09,34,13.20
2010,11,16,09,35,15.40
2010,11,16,09,36,17.80
2010,11,16,09,37,10.40
2010,11,16,09,38,9.10
2010,11,16,09,39,9.40
2010,11,16,09,40,9.00
2010,11,16,09,41,6.80
2010,11,16,09,42,11.60
2010,11,16,09,43,12.50
2010,11,16,09,44,6.60
2010,11,16,09,45,8.10
2010,11,16,09,46,7.70
2010,11,16,09,47,8.00
2010,11,16,09,48,11.60
2010,11,16,09,49,5.10
2010,11,16,09,50,9.20
2010,11,16,09,51,6.60
2010,11,16,09,52,7.80
2010,11,16,09,53,11.70
2010,11,16,09,54,7.90
2010,11,16,09,55,12.60
2010,11,16,09,56,16.90
2010,11,16,09,57,11.00
2010,11,16,09,58,10.50
2010,11,16,09,59,12.70
2010,11,16,10,00,11.30
2010,11,16,10,01,13.40
2010,11,16,10,02,11.90
2010,11,16,10,03,16.00
2010,11,16,10,04,14.00
2010,11,16,10,05,17.00
2010,11,16,10,06,10.30
2010,11,16,10,07,13.10
2010,11,16,10,08,12.50
2010,11,16,10,09,15.20
2010,11,16,10,10,18.20
2010,11,16,10,11,18.00
2010,11,16,10,12,15.80
2010,11,16,10,13,14.30
2010,11,16,10,14,8.50
2010,11,16,10,15,11.40
2010,11,16,10,16,17.40
2010,11,16,10,17,16.30
2010,11,16,10,18,18.20
2010,11,16,10,19,16.90
2010,11,16,10,20,15.20
2010,11,16,10,21,21.80
2010,11,16,10,22,11.80
2010,11,16,10,23,11.90
2010,11,16,10,24,13.90
2010,11,16,10,25,12.70
2010,11,16,10,26,18.90
2010,11,16,10,27,17.30
2010,11,16,10,28,16.40
2010,11,16,10,29,16.70
2010,11,16,10,30,20.00
2010,11,16,10,31,14.80
2010,11,16,10,32,15.60
2010,11,16,10,33,15.90
2010,11,16,10,34,14.80
2010,11,16,10,35,24.80
2010,11,16,10,36,21.30
2010,11,16,10,37,16.20
2010,11,16,10,38,15.60
2010,11,16,10,39,14.20
2010,11,16,10,40,15.50
2010,11,16,10,41,18.30
2010,11,16,10,42,21.00
2010,11,16,10,43,28.50
2010,11,16,10,44,25.10
2010,11,16,10,45,26.60
2010,11,16,10,46,26.50
2010,11,16,10,47,24.60
2010,11,16,10,48,16.80
2010,11,16,10,49,17.10
2010,11,16,10,50,26.60
2010,11,16,10,51,22.20
2010,11,16,10,52,21.10
2010,11,16,10,53,17.80
2010,11,16,10,54,20.80
2010,11,16,10,55,16.20
2010,11,16,10,56,19.30
2010,11,16,10,57,25.30
2010,11,16,10,58,24.40
2010,11,16,10,59,23.00
2010,11,16,11,00,17.50
2010,11,16,11,01,13.90
2010,11,16,11,02,22.80
2010,11,16,11,03,20.00
2010,11,16,11,04,17.80
2010,11,16,11,05,18.50
2010,11,16,11,06,24.80
2010,11,16,11,07,16.30
2010,11,16,11,08,18.50
2010,11,16,11,09,18.70
2010,11,16,11,10,17.20
2010,11,16,11,11,10.30
2010,11,16,11,12,8.00
2010,11,16,11,13,18.50
2010,11,16,11,14,17.50
2010,11,16,11,15,12.00
2010,11,16,11,16,23.70
2010,11,16,11,17,22.30
2010,11,16,11,18,16.90
2010,11,16,11,19,20.00
2010,11,16,11,20,19.80
2010,11,16,11,21,13.90
2010,11,16,11,22,20.60
2010,11,16,11,23,20.10
2010,11,16,11,24,14.30
2010,11,16,11,25,21.10
2010,11,16,11,26,21.20
2010,11,16,11,27,24.80
2010,11,16,11,28,19.30
2010,11,16,11,29,24.40
2010,11,16,11,30,20.50
2010,11,16,11,31,25.00
2010,11,16,11,32,23.30
2010,11,16,11,33,15.40
2010,11,16,11,34,20.60
2010,11,16,11,35,20.40
2010,11,16,11,36,17.80
2010,11,16,11,37,19.10
2010,11,16,11,38,28.90
2010,11,16,11,39,24.30
2010,11,16,11,40,21.30
2010,11,16,11,41,27.90
2010,11,16,11,42,20.20
2010,11,16,11,43,21.50
2010,11,16,11,44,18.70
2010,11,16,11,45,18.70
2010,11,16,11,46,16.20
2010,11,16,11,47,17.70
2010,11,16,11,48,22.00
2010,11,16,11,49,18.90
2010,11,16,11,50,21.70
2010,11,16,11,51,25.50
2010,11,16,11,52,30.30
2010,11,16,11,53,27.80
2010,11,16,11,54,18.60
2010,11,16,11,55,20.80
2010,11,16,11,56,13.80
2010,11,16,11,57,26.40
2010,11,16,11,58,20.90
2010,11,16,11,59,16.90
2010,11,16,12,00,25.90
2010,11,16,12,01,27.70
2010,11,16,12,02,21.80
2010,11,16,12,03,30.40
2010,11,16,12,04,29.30
2010,11,16,12,05,14.60
2010,11,16,12,06,21.10
2010,11,16,12,07,19.80
2010,11,16,12,08,28.70
2010,11,16,12,09,28.50
2010,11,16,12,10,26.70
2010,11,16,12,11,21.60
2010,11,16,12,12,27.90
2010,11,16,12,13,25.70
2010,11,16,12,14,25.50
2010,11,16,12,15,19.20
2010,11,16,12,16,25.50
2010,11,16,12,17,27.90
2010,11,16,12,18,23.70
2010,11,16,12,19,20.70
2010,11,16,12,20,30.40
2010,11,16,12,21,24.80
2010,11,16,12,22,25.50
2010,11,16,12,23,24.70
2010,11,16,12,24,17.50
2010,11,16,12,25,21.50
2010,11,16,12,26,18.40
2010,11,16,12,27,21.70
2010,11,16,12,28,23.90
2010,11,16,12,29,19.20
2010,11,16,12,30,19.90
2010,11,16,12,31,21.80
2010,11,16,12,32,17.60
2010,11,16,12,33,23.40
2010,11,16,12,34,19.00
2010,11,16,12,35,19.70
2010,11,16,12,36,19.80
2010,11,16,12,37,22.60
2010,11,16,12,38,27.30
2010,11,16,12,39,17.20
2010,11,16,12,40,27.10
2010,11,16,12,41,17.30
2010,11,16,12,42,26.20
2010,11,16,12,43,21.80
2010,11,16,12,44,16.80
2010,11,16,12,45,19.40
2010,11,16,12,46,16.50
2010,11,16,12,47,12.10
2010,11,16,12,48,14.30
2010,11,16,12,49,14.30
2010,11,16,12,50,15.30
2010,11,16,12,51,19.80
2010,11,16,12,52,23.20
2010,11,16,12,53,18.50
2010,11,16,12,54,20.80
2010,11,16,12,55,17.60
2010,11,16,12,56,17.80
2010,11,16,12,57,13.20
2010,11,16,12,58,16.20
2010,11,16,12,59,18.30
2010,11,16,13,00,14.20
2010,11,16,13,01,13.00
2010,11,16,13,02,9.70
2010,11,16,13,03,9.90
2010,11,16,13,04,16.90
2010,11,16,13,05,18.30
2010,11,16,13,06,16.30
2010,11,16,13,07,16.20
2010,11,16,13,08,13.20
2010,11,16,13,09,13.60
2010,11,16,13,10,13.90
2010,11,16,13,11,16.60
2010,11,16,13,12,15.80
2010,11,16,13,13,13.90
2010,11,16,13,14,14.80
2010,11,16,13,15,12.00
2010,11,16,13,16,11.70
2010,11,16,13,17,24.40
2010,11,16,13,18,15.00
2010,11,16,13,19,18.50
2010,11,16,13,20,20.50
2010,11,16,13,21,21.90
2010,11,16,13,22,26.00
2010,11,16,13,23,24.70
2010,11,16,13,24,27.90
2010,11,16,13,25,20.20
2010,11,16,13,26,24.80
2010,11,16,13,27,22.60
2010,11,16,13,28,25.50
2010,11,16,13,29,19.50
2010,11,16,13,30,28.20
2010,11,16,13,31,20.60
2010,11,16,13,32,30.60
2010,11,16,13,33,23.30
2010,11,16,13,34,22.50
2010,11,16,13,35,21.20
2010,11,16,13,36,18.90
2010,11,16,13,37,17.90
2010,11,16,13,38,16.10
2010,11,16,13,39,16.90
2010,11,16,13,40,20.90
2010,11,16,13,41,17.70
2010,11,16,13,42,25.70
2010,11,16,13,43,28.10
2010,11,16,13,44,19.30
2010,11,16,13,45,17.50
2010,11,16,13,46,18.20
2010,11,16,13,47,18.90
2010,11,16,13,48,17.40
2010,11,16,13,49,30.90
2010,11,16,13,50,26.30
2010,11,16,13,51,17.60
2010,11,16,13,52,18.70
2010,11,16,13,53,19.00
2010,11,16,13,54,23.30
2010,11,16,13,55,24.40
2010,11,16,13,56,25.10
2010,11,16,13,57,22.00
2010,11,16,13,58,25.50
2010,11,16,13,59,21.10
2010,11,16,14,00,20.00
2010,11,16,14,01,11.00
2010,11,16,14,02,14.30
2010,11,16,14,03,13.20
2010,11,16,14,04,12.00
2010,11,16,14,05,11.30
2010,11,16,14,06,17.00
2010,11,16,14,07,16.30
2010,11,16,14,08,11.10
2010,11,16,14,09,11.00
2010,11,16,14,10,7.60
2010,11,16,14,11,4.20
2010,11,16,14,12,11.60
2010,11,16,14,13,8.40
2010,11,16,14,14,8.80
2010,11,16,14,15,18.60
2010,11,16,14,16,18.00
2010,11,16,14,17,17.20
2010,11,16,14,18,19.20
2010,11,16,14,19,11.50
2010,11,16,14,20,8.90
2010,11,16,14,21,19.20
2010,11,16,14,22,22.50
2010,11,16,14,23,19.00
2010,11,16,14,24,18.60
2010,11,16,14,25,20.80
2010,11,16,14,26,18.60
2010,11,16,14,27,14.70
2010,11,16,14,28,18.20
2010,11,16,14,29,14.20
2010,11,16,14,30,17.80
2010,11,16,14,31,22.40
2010,11,16,14,32,21.50
2010,11,16,14,33,18.80
2010,11,16,14,34,11.80
2010,11,16,14,35,18.30
2010,11,16,14,36,25.50
2010,11,16,14,37,18.00
2010,11,16,14,38,9.00
2010,11,16,14,39,12.20
2010,11,16,14,40,21.70
2010,11,16,14,41,19.20
2010,11,16,14,42,21.70
2010,11,16,14,43,21.60
2010,11,16,14,44,23.50
2010,11,16,14,45,16.50
2010,11,16,14,46,18.30
2010,11,16,14,47,18.60
2010,11,16,14,48,19.80
2010,11,16,14,49,22.50
2010,11,16,14,50,17.50
2010,11,16,14,51,11.10
2010,11,16,14,52,13.60
2010,11,16,14,53,19.20
2010,11,16,14,54,17.80
2010,11,16,14,55,15.10
2010,11,16,14,56,15.50
2010,11,16,14,57,17.10
2010,11,16,14,58,23.20
2010,11,16,14,59,16.00
2010,11,16,15,00,21.40
2010,11,16,15,01,19.00
2010,11,16,15,02,22.50
2010,11,16,15,03,20.30
2010,11,16,15,04,21.90
2010,11,16,15,05,16.80
2010,11,16,15,06,19.10
2010,11,16,15,07,13.20
2010,11,16,15,08,11.70
2010,11,16,15,09,16.40
2010,11,16,15,10,18.20
2010,11,16,15,11,13.50
2010,11,16,15,12,19.30
2010,11,16,15,13,18.30
2010,11,16,15,14,17.20
2010,11,16,15,15,12.10
2010,11,16,15,16,15.50
2010,11,16,15,17,16.30
2010,11,16,15,18,15.90
2010,11,16,15,19,9.90
2010,11,16,15,20,15.00
2010,11,16,15,21,18.80
2010,11,16,15,22,16.20
2010,11,16,15,23,16.80
2010,11,16,15,24,21.60
2010,11,16,15,25,25.00
2010,11,16,15,26,22.80
2010,11,16,15,27,20.60
2010,11,16,15,28,19.40
2010,11,16,15,29,8.30
2010,11,16,15,30,13.60
2010,11,16,15,31,16.60
2010,11,16,15,32,17.20
2010,11,16,15,33,19.50
2010,11,16,15,34,24.70
2010,11,16,15,35,21.00
2010,11,16,15,36,8.10
2010,11,16,15,37,20.10
2010,11,16,15,38,22.70
2010,11,16,15,39,19.80
2010,11,16,15,40,20.80
2010,11,16,15,41,17.20
2010,11,16,15,42,13.20
2010,11,16,15,43,12.90
2010,11,16,15,44,10.20
2010,11,16,15,45,12.50
2010,11,16,15,46,9.50
2010,11,16,15,47,19.20
2010,11,16,15,48,13.00
2010,11,16,15,49,8.40
2010,11,16,15,50,13.40
2010,11,16,15,51,12.50
2010,11,16,15,52,12.50
2010,11,16,15,53,13.00
2010,11,16,15,54,16.50
2010,11,16,15,55,9.50
2010,11,16,15,56,11.50
2010,11,16,15,57,12.40
2010,11,16,15,58,16.40
2010,11,16,15,59,17.30
2010,11,16,16,00,15.80
2010,11,16,16,01,12.90
2010,11,16,16,02,12.30
2010,11,16,16,03,13.20
2010,11,16,16,04,17.40
2010,11,16,16,05,17.00
2010,11,16,16,06,14.00
2010,11,16,16,07,13.10
2010,11,16,16,08,11.00
2010,11,16,16,09,13.80
2010,11,16,16,10,14.00
2010,11,16,16,11,11.30
2010,11,16,16,12,10.00
2010,11,16,16,13,12.90
2010,11,16,16,14,8.80
2010,11,16,16,15,5.00
2010,11,16,16,16,10.60
2010,11,16,16,17,11.80
2010,11,16,16,18,10.40
2010,11,16,16,19,8.10
2010,11,16,16,20,8.50
2010,11,16,16,21,11.20
2010,11,16,16,22,12.00
2010,11,16,16,23,9.00
2010,11,16,16,24,8.60
2010,11,16,16,25,8.80
2010,11,16,16,26,7.60
2010,11,16,16,27,8.00
2010,11,16,16,28,6.50
2010,11,16,16,29,5.90
2010,11,16,16,30,7.00
2010,11,16,16,31,5.20
2010,11,16,16,32,4.70
2010,11,16,16,33,3.80
2010,11,16,16,34,2.80
2010,11,16,16,35,6.40
2010,11,16,16,36,4.80
2010,11,16,16,37,12.10
2010,11,16,16,38,13.50
2010,11,16,16,39,8.70
2010,11,16,16,40,8.70
2010,11,16,16,41,7.10
2010,11,16,16,42,4.50
2010,11,16,16,43,6.40
2010,11,16,16,44,8.20
2010,11,16,16,45,10.50
2010,11,16,16,46,7.60
2010,11,16,16,47,7.90
2010,11,16,16,48,5.30
2010,11,16,16,49,5.70
2010,11,16,16,50,6.40
2010,11,16,16,51,8.50
2010,11,16,16,52,13.80
2010,11,16,16,53,12.80
2010,11,16,16,54,10.40
2010,11,16,16,55,11.60
2010,11,16,16,56,15.50
2010,11,16,16,57,12.00
2010,11,16,16,58,16.60
2010,11,16,16,59,17.60
2010,11,16,17,00,11.50
2010,11,16,17,01,7.00
2010,11,16,17,02,7.40
2010,11,16,17,03,11.90
2010,11,16,17,04,10.90
2010,11,16,17,05,11.30
2010,11,16,17,06,14.30
2010,11,16,17,07,14.30
2010,11,16,17,08,7.40
2010,11,16,17,09,7.00
2010,11,16,17,10,5.00
2010,11,16,17,11,7.90
2010,11,16,17,12,11.10
2010,11,16,17,13,10.10
2010,11,16,17,14,5.40
2010,11,16,17,15,5.30
2010,11,16,17,16,13.60
2010,11,16,17,17,7.50
2010,11,16,17,18,3.60
2010,11,16,17,19,6.40
2010,11,16,17,20,7.60
2010,11,16,17,21,8.00
2010,11,16,17,22,9.60
2010,11,16,17,23,8.90
2010,11,16,17,24,6.00
2010,11,16,17,25,6.40
2010,11,16,17,26,9.40